RH
43 44 48 62 79 88 92 90 95 99 98 100 97 98 96 85 88 94 93 95 93 86 79 78 73 66 74 78 75 82 85 82 85 82 79 77 76 82 80 76 77 75 73 74 74 73 76 76 73 75 73 72 64 49 46 43 41 39 36 35 34 34 33 33 41 57 66 68 73 75 78 79 79 79 77 72 68 73 77 78 81 76 67 67 71 72 70 74 77 76 76 77 79 82 82 76 74
54 55 62 78 88 93 94 90 97 100 99 101 97 97 96 88 90 93 90 92 91 81 78 76 69 68 73 70 65 73 85 90 83 80 88 83 80 87 79 73 73 72 72 70 68 68 76 80 78 77 73 66 54 42 38 36 34 33 32 31 31 33 33 38 53 67 72 73 75 75 77 76 78 76 73 74 71 74 79 83 85 75 69 72 73 72 72 74 75 75 77 79 81 85 83 78 78
71 76 80 90 93 94 95 95 99 99 100 100 97 95 93 94 93 90 87 87 84 77 79 76 70 72 73 74 74 79 91 96 80 77 95 87 81 88 80 74 72 70 69 65 62 62 68 71 70 67 59 51 42 37 35 34 34 35 35 33 33 34 37 49 63 67 66 70 72 73 73 73 75 74 72 75 74 75 79 83 85 79 76 76 76 75 74 75 76 77 79 80 80 82 80 79 80
84 90 89 93 95 97 98 99 100 99 101 97 96 95 91 94 91 87 87 84 79 77 80 75 77 80 76 82 83 86 97 99 83 74 91 86 73 81 80 76 74 71 68 64 59 58 62 62 61 57 50 43 40 39 37 36 38 38 37 36 37 41 51 62 68 66 62 64 68 70 71 73 75 75 76 78 76 77 81 84 88 86 80 76 77 78 77 79 78 78 79 79 78 79 78 79 80
90 93 94 95 96 98 99 99 99 100 99 96 97 95 91 91 90 87 86 82 78 78 78 75 82 80 75 83 81 86 98 97 90 74 78 79 69 76 76 72 72 71 68 64 59 59 66 69 68 67 62 55 48 46 42 39 38 39 44 48 50 56 66 70 70 69 66 67 69 72 72 73 75 77 78 81 80 81 83 85 89 91 84 75 70 73 79 80 79 79 78 77 76 76 77 77 79
91 93 96 96 96 95 97 100 99 100 95 92 97 96 92 91 91 89 86 83 80 78 76 75 79 78 81 88 83 89 94 85 86 75 67 71 71 73 70 67 67 66 66 63 59 63 72 75 74 75 74 69 60 53 45 38 39 48 60 66 67 70 72 72 73 71 70 71 71 72 72 72 75 77 77 78 79 80 82 80 84 91 94 87 74 70 73 74 75 76 73 72 72 75 77 77 78
92 93 98 97 97 96 99 101 99 100 93 89 94 95 93 92 91 89 86 83 82 79 75 77 74 76 86 88 88 93 89 76 74 70 63 66 69 70 66 63 61 62 62 58 58 67 76 75 74 76 75 73 67 55 44 43 54 65 72 76 76 75 72 72 73 71 71 71 71 71 71 71 73 75 76 78 78 77 78 77 79 84 91 97 88 79 74 70 70 69 70 72 74 77 77 78 79
93 93 96 98 99 98 100 101 98 98 92 88 91 91 93 92 90 89 89 86 88 84 77 77 70 77 89 85 93 97 87 78 68 63 62 64 67 67 64 59 60 61 58 56 61 70 77 76 75 77 76 74 66 51 48 59 70 75 76 75 75 76 72 71 73 73 72 71 70 72 72 72 73 74 76 78 79 77 76 75 76 78 83 91 91 90 86 81 78 74 75 75 76 79 78 79 81
95 96 95 98 100 99 99 99 96 96 92 89 91 91 92 91 86 87 90 89 90 86 78 74 68 81 93 90 98 98 87 79 68 65 64 62 64 65 62 58 58 58 57 61 67 74 78 78 76 78 77 68 55 51 59 71 76 76 75 72 73 74 71 72 75 76 75 73 73 74 74 74 74 74 75 76 77 76 75 76 76 78 80 81 82 87 88 86 83 78 75 73 73 77 79 81 80
98 98 96 98 99 100 100 96 93 96 92 88 92 92 93 92 86 88 89 88 85 82 78 70 72 85 92 94 100 95 85 77 69 68 65 61 62 64 62 60 57 54 59 66 72 77 77 78 79 74 66 55 50 59 71 76 77 76 73 71 73 73 73 76 77 76 77 76 75 76 76 76 75 74 76 75 76 77 76 77 77 79 81 80 77 78 80 81 78 73 73 72 73 77 79 80 80
99 98 96 99 99 100 100 96 93 95 93 89 93 93 94 92 87 89 89 87 82 78 76 72 79 88 90 96 100 93 81 74 70 68 65 63 63 63 62 61 58 54 61 67 71 76 79 81 76 62 55 55 61 70 75 77 77 74 72 73 75 74 75 77 77 77 76 74 75 76 76 77 77 75 76 76 77 78 79 80 78 78 81 80 76 72 73 74 73 72 74 76 78 79 80 81 79
98 99 99 100 100 101 98 98 95 92 94 91 93 94 92 88 86 90 90 89 80 74 74 75 81 84 89 97 100 96 84 75 71 68 67 65 64 64 63 61 60 58 63 69 72 77 80 74 62 56 60 66 70 74 77 77 75 72 73 75 74 73 75 78 78 76 72 71 75 75 75 76 76 75 77 79 80 78 77 80 78 78 80 79 75 70 70 72 73 75 76 77 78 78 79 79 78
99 98 98 100 99 101 98 98 95 92 96 92 92 94 89 86 89 90 90 89 78 74 71 72 77 77 89 98 99 99 90 79 70 69 69 66 66 65 63 63 62 60 64 72 75 75 69 59 56 63 70 73 74 75 77 76 72 73 75 74 72 73 77 78 77 74 69 70 75 76 74 74 74 76 77 78 79 76 74 76 75 76 78 78 73 70 72 74 77 78 77 77 76 77 78 78 77
98 92 92 97 98 101 99 98 95 94 98 94 94 94 88 89 90 85 85 88 83 76 69 71 74 76 94 100 98 102 94 81 70 71 72 68 67 65 64 64 63 62 65 69 68 63 57 58 65 72 75 76 76 75 76 74 72 74 74 71 69 73 77 76 73 71 69 71 76 75 73 72 72 74 75 75 76 76 75 75 74 74 74 74 74 73 75 77 78 77 75 75 76 77 77 76 73
95 86 83 94 100 99 95 96 94 94 99 94 95 94 90 91 87 81 81 87 85 76 73 75 71 73 91 93 96 99 89 81 75 75 72 70 68 65 66 64 65 65 60 57 56 57 59 68 73 74 77 77 76 76 76 73 72 72 71 68 68 72 76 75 72 68 69 72 74 73 72 72 71 72 74 74 75 75 74 75 76 75 73 73 75 74 74 75 75 77 76 76 78 77 76 75 70
89 83 80 87 95 94 87 90 91 94 98 94 95 91 93 95 86 83 82 82 83 78 75 75 68 68 79 82 91 90 81 84 83 78 72 70 70 68 68 67 68 62 51 51 57 64 69 75 76 76 77 75 76 76 73 71 72 70 68 66 67 72 76 74 71 68 68 71 72 73 74 73 73 75 75 74 75 74 72 75 75 75 74 74 74 72 72 72 73 76 78 78 78 77 76 76 74
79 81 84 87 88 88 84 83 85 91 96 95 95 89 93 98 90 85 80 80 84 80 75 73 69 66 72 78 84 81 80 91 88 79 73 71 73 72 73 69 61 54 54 60 65 72 76 77 78 77 74 74 75 71 68 70 71 70 68 68 70 74 75 73 72 70 72 73 74 74 74 73 72 75 76 75 75 75 74 75 74 75 74 74 73 70 69 70 72 74 76 78 78 78 76 76 78
76 80 87 91 82 76 75 74 76 83 90 93 93 89 90 96 95 86 81 84 82 78 73 70 73 70 74 77 78 81 87 95 90 79 73 72 74 75 74 63 52 58 71 74 71 75 78 78 79 75 70 72 71 67 70 70 70 68 66 71 75 76 76 76 75 75 76 76 76 74 73 72 71 72 74 74 74 74 75 75 75 76 74 74 73 70 68 68 71 74 74 78 79 78 76 76 77
73 77 83 85 74 64 60 68 75 78 86 90 90 88 88 92 93 86 88 91 83 81 76 71 76 77 79 78 79 87 93 96 90 77 70 71 73 70 64 53 54 70 82 82 79 76 75 75 75 70 66 69 67 66 70 69 67 64 65 72 76 76 77 77 76 75 75 74 73 72 71 71 71 72 72 74 74 73 74 74 74 74 74 74 73 72 70 67 71 75 75 77 77 76 76 76 74
65 73 80 74 64 56 55 67 74 73 81 89 91 88 89 92 87 87 92 92 86 83 76 73 78 80 81 82 85 92 93 95 89 75 69 70 69 61 49 44 53 67 72 79 83 75 68 69 69 66 64 65 65 64 67 66 63 62 66 74 75 74 74 73 74 72 70 69 68 68 69 71 73 73 73 74 74 74 76 77 76 75 74 74 73 73 69 66 69 74 76 78 77 75 76 76 74
58 69 75 63 52 51 56 64 68 73 80 87 92 88 93 92 84 87 89 91 93 82 72 73 77 78 82 84 87 91 91 93 89 79 72 69 62 51 41 39 45 52 60 71 75 68 62 64 65 64 63 63 63 62 64 63 61 62 67 72 73 72 71 70 70 69 67 65 64 62 62 66 69 71 74 73 71 72 75 77 75 74 74 73 71 69 66 65 66 70 74 78 78 77 76 75 74
54 59 58 51 46 49 60 66 66 76 82 87 91 86 92 90 84 88 83 87 92 79 72 72 73 77 81 84 87 89 89 91 91 85 78 68 54 45 41 41 46 49 54 61 63 61 61 63 64 63 63 63 62 63 64 61 60 63 66 68 68 68 68 67 67 68 67 65 62 60 60 62 63 67 70 69 66 67 69 71 70 69 69 68 66 64 63 65 67 70 73 76 77 77 77 77 76
55 53 45 42 41 45 62 71 70 76 83 89 87 82 87 88 90 89 80 83 82 74 74 70 72 77 79 82 84 87 88 89 89 87 82 69 51 42 40 41 47 48 48 53 56 60 61 62 63 61 61 61 62 66 65 61 60 63 66 67 64 63 64 65 67 68 67 66 65 64 63 62 62 62 66 67 64 63 64 67 69 69 67 64 64 65 67 69 71 73 74 74 75 77 79 81 79
53 53 44 40 37 38 54 69 73 76 81 86 82 80 86 87 90 89 82 82 76 74 75 70 72 76 78 81 82 85 86 87 88 85 82 73 52 39 39 41 43 42 43 51 57 60 60 61 62 60 60 60 62 65 64 61 60 62 65 66 64 62 62 64 67 67 67 67 66 66 65 63 61 61 64 64 62 62 64 66 69 72 72 69 70 73 75 77 77 76 76 76 77 80 82 83 82
46 49 42 38 35 32 48 67 75 78 80 82 80 80 85 84 84 86 83 78 74 74 74 72 73 76 78 79 80 83 84 85 87 84 83 79 57 40 42 45 44 40 41 49 58 60 60 61 61 59 58 59 61 62 61 59 56 58 62 63 62 60 60 62 64 66 68 69 68 68 69 68 64 62 65 66 65 65 65 66 68 71 73 74 75 78 80 81 80 79 80 80 81 83 84 84 84
40 39 35 34 32 30 49 70 75 78 80 79 78 81 85 80 78 85 82 75 75 75 73 73 74 76 77 77 79 80 82 84 85 84 83 77 58 43 46 47 44 40 39 48 56 59 60 61 61 57 57 58 60 60 59 57 52 55 60 61 61 60 61 61 62 67 70 71 71 71 74 75 71 67 66 69 71 71 71 71 71 72 73 74 77 79 80 79 79 82 83 82 82 84 84 84 83
33 30 29 27 25 33 56 70 73 77 78 75 77 86 87 78 78 89 86 76 75 75 71 70 73 76 75 75 78 78 80 81 82 83 82 75 57 43 46 48 44 40 41 48 54 57 59 62 60 55 57 58 58 59 58 55 50 54 62 62 62 63 63 62 64 70 73 73 71 71 76 80 79 74 72 73 75 76 77 77 77 76 74 73 75 77 78 77 77 80 81 81 81 83 83 83 82
25 23 23 18 22 45 64 69 72 75 76 73 76 86 87 80 82 87 83 76 74 75 72 68 71 74 73 73 75 76 78 79 80 81 80 76 64 49 45 45 44 42 44 47 52 57 58 61 59 54 55 57 57 59 59 55 51 57 64 63 65 68 68 68 70 74 77 77 73 72 77 82 84 82 80 80 80 78 78 79 79 79 77 74 74 75 77 77 76 77 77 78 78 80 82 82 81
21 19 18 17 39 65 67 67 71 70 75 74 72 85 90 87 85 80 78 77 75 76 73 70 69 70 71 71 73 75 75 76 78 77 77 75 69 58 44 40 42 43 45 48 52 56 56 60 60 54 52 53 56 59 60 57 53 58 64 65 68 72 73 73 74 77 81 82 78 76 77 81 86 86 84 83 83 78 77 79 79 79 80 79 77 74 75 77 77 77 75 73 73 75 78 78 77
20 20 14 16 56 82 68 65 69 66 75 71 65 86 95 86 83 81 80 79 78 78 75 72 69 66 67 67 70 74 73 74 75 74 75 73 71 65 49 41 41 42 45 49 54 55 55 60 59 56 50 49 56 60 61 58 54 58 63 65 70 73 75 75 76 78 80 82 81 80 79 79 84 86 84 84 83 80 78 80 80 79 79 82 82 76 72 73 76 77 74 72 73 74 75 75 74
19 21 16 18 46 68 65 64 67 70 77 68 61 83 92 79 79 85 82 78 79 80 78 75 69 65 64 65 68 71 72 72 73 71 72 71 70 69 60 50 44 46 49 49 53 54 56 59 58 59 51 47 57 61 62 58 53 58 62 66 71 72 75 76 76 76 75 77 80 80 80 80 81 83 82 82 82 83 82 81 81 79 77 79 81 77 72 70 74 75 73 73 74 73 72 71 72
24 20 25 26 19 38 63 63 63 71 76 66 60 76 84 73 76 84 80 78 78 78 80 78 72 66 62 63 66 68 70 70 71 70 68 68 69 69 68 61 51 50 53 52 53 55 58 59 58 61 53 48 57 62 63 60 55 58 63 68 72 75 78 77 75 74 70 71 75 77 80 82 81 80 81 82 82 82 81 81 82 80 77 77 78 77 72 69 73 74 73 73 71 70 69 67 69
35 23 27 27 11 38 73 64 56 64 73 70 64 77 84 73 74 82 81 79 77 77 82 79 74 69 62 61 64 65 67 67 69 69 66 66 66 67 67 64 54 50 55 57 54 54 58 58 57 61 55 48 55 61 65 65 62 60 64 71 75 78 80 76 75 75 71 70 72 74 77 81 82 80 78 78 79 80 79 80 82 80 77 77 77 77 72 68 72 75 74 73 70 70 70 66 68
41 29 25 24 16 37 62 62 59 60 69 73 68 77 80 71 73 80 83 81 77 78 82 80 76 71 63 61 62 62 63 64 65 66 66 64 63 64 65 63 57 52 55 58 54 51 55 56 55 60 58 52 56 61 64 68 68 65 67 73 76 78 78 75 75 76 73 76 76 72 72 76 79 78 74 73 75 79 80 81 81 79 75 73 73 74 72 68 69 73 75 74 73 75 74 69 68
35 30 25 24 20 23 35 50 60 62 70 72 72 77 73 71 77 80 82 81 78 78 79 78 78 73 65 61 62 61 61 61 61 62 63 62 62 63 63 63 60 56 56 59 59 53 54 56 54 59 60 57 60 62 63 68 69 69 73 77 79 77 77 77 77 77 76 78 79 72 67 70 73 72 71 73 74 76 79 79 78 77 75 71 70 70 70 68 67 69 74 75 74 75 74 69 67
28 26 23 24 21 19 19 26 44 62 71 71 73 75 70 74 83 82 81 80 77 77 77 78 78 74 68 64 62 61 60 60 59 60 61 61 61 61 62 62 61 60 57 59 63 59 56 57 57 59 61 61 63 64 69 70 68 72 77 79 81 79 79 80 78 77 79 79 77 70 65 68 69 67 70 75 75 75 76 75 75 75 74 72 70 69 68 68 67 67 73 75 73 73 73 69 67
24 24 24 24 23 24 18 14 35 60 68 68 68 68 67 75 84 82 78 79 78 76 78 79 78 75 71 66 64 62 61 59 59 59 59 61 61 60 61 61 61 63 61 59 65 62 56 56 57 58 62 65 64 67 73 71 67 72 78 78 78 78 78 80 78 79 81 76 69 65 64 68 67 64 69 76 77 78 76 73 73 73 71 71 71 70 69 69 67 67 73 76 73 72 71 70 69
24 25 25 27 25 25 20 14 32 56 61 61 62 64 65 71 80 81 77 78 77 76 78 78 78 76 71 68 65 63 62 60 59 60 59 60 61 60 60 61 62 64 64 62 64 60 54 54 57 56 60 64 65 67 70 69 68 70 73 73 73 75 75 75 76 80 80 72 64 63 66 68 66 64 69 75 78 80 78 74 71 71 71 71 70 69 70 70 69 69 74 77 73 70 68 69 70
24 25 25 27 25 22 22 15 20 44 58 55 55 62 64 67 76 78 78 78 75 73 75 76 76 75 72 69 66 64 62 62 60 60 59 59 60 60 60 61 62 62 62 61 62 59 53 52 55 56 57 60 62 65 67 67 69 70 69 69 69 70 71 72 74 79 80 74 71 72 71 68 66 66 68 71 77 79 78 74 71 72 72 70 67 66 67 70 71 71 75 76 71 68 70 70 69
24 26 26 27 24 19 24 19 13 31 50 50 51 63 67 68 74 77 76 75 73 72 72 73 73 72 70 68 65 64 62 62 61 60 59 58 59 61 61 61 61 62 61 59 61 60 54 49 51 54 54 54 57 60 62 65 69 70 68 67 69 68 70 74 76 80 82 79 79 79 74 69 66 67 67 68 75 77 75 72 70 72 73 69 65 64 65 69 72 72 75 75 70 70 73 71 68
28 26 25 25 23 20 22 18 13 18 28 40 54 73 81 75 75 78 75 72 70 69 69 70 71 70 68 66 64 63 62 62 61 60 59 58 58 60 61 61 60 62 61 58 59 59 54 47 47 51 51 50 52 54 58 64 67 67 67 70 74 75 75 77 77 79 81 79 78 77 72 67 65 66 66 68 74 75 73 72 70 72 73 69 65 64 64 69 72 72 76 75 70 72 75 73 71
31 26 24 23 21 21 20 16 15 13 21 42 55 73 87 80 76 76 73 73 70 64 66 68 68 67 65 63 63 62 61 61 60 60 59 57 57 59 60 62 61 61 59 56 56 56 52 47 45 51 54 50 48 49 54 61 63 59 62 66 69 73 77 76 74 74 76 76 74 72 70 66 64 64 65 68 71 71 72 73 71 71 72 69 66 65 64 66 70 72 76 76 73 75 75 74 73
33 27 22 20 19 21 19 16 17 17 31 49 48 65 89 83 76 73 69 74 72 64 65 65 65 65 62 61 61 61 61 61 60 60 59 57 56 57 59 61 62 60 57 55 55 55 54 49 44 48 56 56 50 47 50 58 62 58 55 55 54 61 67 66 67 71 71 70 69 68 67 64 62 62 63 67 69 69 70 71 70 71 75 73 69 68 65 63 67 70 74 77 78 78 76 74 70
31 25 18 18 19 18 17 16 16 18 36 50 40 55 88 88 75 68 66 74 73 69 67 63 62 62 61 60 59 60 60 60 60 59 59 58 55 55 57 59 60 58 56 56 55 55 55 52 46 45 55 61 56 49 47 51 59 57 52 51 50 53 56 57 63 70 70 68 67 64 61 60 60 60 61 64 67 68 69 69 69 72 77 75 68 67 68 68 69 70 71 74 77 78 75 71 67
26 20 16 17 14 15 16 14 17 23 39 56 47 46 73 89 79 66 66 75 76 72 67 62 62 60 60 60 57 58 59 58 59 58 58 57 55 54 54 55 58 57 56 56 54 53 54 54 49 46 54 64 63 54 47 47 53 55 50 49 49 49 52 58 64 69 70 67 66 65 60 57 58 59 59 63 65 66 68 68 68 70 73 71 66 66 70 73 73 71 68 69 72 73 71 68 67
21 17 17 17 15 17 19 18 22 22 27 43 44 42 60 79 81 74 72 77 76 70 65 60 60 60 59 59 58 57 57 58 58 58 57 56 55 54 53 54 55 56 56 55 53 52 53 54 51 48 52 63 66 59 50 45 48 53 50 48 47 45 49 59 67 69 69 67 66 66 62 55 55 58 58 61 63 63 65 66 67 69 69 69 68 68 70 71 71 70 68 68 68 68 67 66 67
18 17 17 16 21 24 30 44 38 20 26 39 36 36 44 50 62 75 74 68 67 64 63 60 57 59 60 58 59 57 56 57 57 57 57 56 55 54 54 54 54 55 56 56 54 52 53 53 52 48 49 57 64 63 55 47 45 48 48 46 46 43 44 55 64 66 65 65 65 66 63 54 52 54 56 59 61 61 62 63 66 70 69 68 68 69 70 70 70 72 71 70 67 65 65 64 65
18 22 18 16 31 32 33 50 37 18 36 49 36 24 21 24 41 64 64 55 56 57 58 60 57 58 60 59 59 58 56 56 56 57 56 55 55 54 54 54 54 55 57 58 55 53 53 52 51 50 48 52 58 61 59 50 45 46 46 45 45 42 42 47 53 56 58 61 61 62 60 52 48 50 53 55 57 58 60 60 62 66 66 65 64 66 70 70 73 77 76 72 68 66 66 65 64
18 26 26 22 34 33 29 40 35 29 36 35 28 18 15 23 32 48 59 53 51 52 51 54 54 56 59 59 59 58 57 56 55 56 55 55 55 55 55 54 54 56 56 57 56 54 54 52 51 51 50 49 52 58 60 54 47 43 42 43 44 43 42 42 44 47 51 55 58 58 55 49 44 44 47 50 53 55 57 56 56 58 61 63 63 64 68 70 71 75 74 71 68 67 66 65 64
18 24 28 26 31 30 32 41 36 33 30 24 25 19 18 25 20 29 49 50 46 47 47 48 50 53 57 59 59 58 58 57 56 55 54 55 55 54 55 54 54 56 55 55 55 54 54 53 52 51 51 49 49 55 59 56 49 43 41 40 41 43 42 40 42 43 44 48 53 54 52 47 42 39 40 42 48 54 54 53 53 52 55 61 62 62 64 68 69 69 70 69 67 65 64 61 61
19 22 23 27 35 33 35 42 37 30 29 28 24 18 23 21 16 29 40 38 40 41 43 47 47 49 54 58 60 59 59 58 57 56 54 54 54 54 55 55 54 54 55 55 55 55 54 53 52 51 52 51 49 51 55 55 50 44 42 41 39 40 40 39 40 39 38 41 46 48 47 46 41 36 35 36 42 50 53 52 52 51 51 55 58 59 61 66 68 66 66 68 69 66 63 58 57
21 22 19 21 30 36 37 41 46 40 31 31 25 23 30 21 18 38 42 38 42 39 39 45 46 48 52 57 62 60 59 59 57 57 56 54 54 54 55 55 55 54 55 55 55 55 55 53 53 51 52 52 50 49 50 50 49 45 43 41 39 38 37 37 37 36 36 36 40 41 39 40 40 37 35 35 37 42 48 52 51 50 50 52 54 55 56 62 66 64 62 65 69 68 64 59 56
25 22 20 19 21 33 35 33 48 49 32 32 33 34 46 43 35 41 45 46 48 44 43 43 42 47 51 56 61 61 58 58 58 57 56 55 54 54 54 54 56 55 55 55 54 55 55 53 53 52 52 53 52 51 48 47 47 45 42 40 39 38 36 35 33 32 32 32 36 38 35 34 37 37 36 35 35 36 40 47 52 53 52 50 52 53 53 55 61 61 58 58 64 67 65 62 58
23 20 20 20 17 27 34 33 46 48 35 35 41 49 65 72 63 52 51 55 52 51 53 48 41 44 50 55 57 60 60 56 57 57 55 56 54 53 54 54 55 55 54 55 54 54 54 53 52 53 53 53 53 53 50 48 47 44 39 38 39 38 36 34 33 32 32 32 34 36 35 32 31 31 32 32 33 33 32 37 44 51 54 52 51 52 52 53 56 57 55 55 60 64 64 62 60
17 17 18 23 25 29 34 36 35 37 39 34 35 58 75 74 71 64 59 61 58 58 61 58 50 43 46 55 55 57 61 58 57 57 56 56 55 53 54 54 55 55 54 54 54 54 54 54 53 53 53 53 53 53 53 51 50 46 40 34 35 37 36 34 33 32 33 33 32 32 33 31 28 27 28 28 29 29 28 29 32 38 46 51 52 51 52 53 53 53 52 53 57 62 62 61 59
17 17 17 23 31 30 29 35 33 36 48 38 35 66 77 65 66 67 64 63 61 62 66 67 62 49 41 48 54 56 58 58 58 57 56 56 55 54 53 53 55 55 55 55 54 55 54 54 54 54 53 53 53 53 54 53 53 50 45 37 34 36 36 36 34 32 33 32 30 30 30 28 28 28 27 25 25 25 25 25 26 28 33 40 46 49 51 52 52 52 52 52 54 58 60 59 60
21 23 22 20 27 28 25 29 32 37 47 49 60 81 76 60 60 61 63 65 62 62 66 68 70 64 50 44 50 55 56 57 57 56 57 56 55 55 53 53 54 54 56 57 55 56 55 55 55 55 55 54 54 54 54 55 55 54 51 43 37 35 35 36 35 34 34 33 31 30 29 28 29 29 28 27 25 24 23 23 24 25 26 30 35 40 45 50 51 52 53 54 54 56 56 56 59
21 24 25 23 24 28 34 37 37 39 41 50 72 82 73 64 58 57 64 64 61 62 63 64 68 73 72 62 54 53 55 57 57 56 57 56 55 56 54 54 54 54 56 57 57 57 56 56 56 55 56 55 54 55 55 55 56 55 54 50 44 38 36 37 37 36 35 35 34 32 30 30 29 28 28 27 25 24 24 23 22 23 24 26 29 32 37 43 47 49 51 54 55 55 54 54 55
Wind_Speed
12 14 16 15 13 10 6 5 1 0 0 1 2 2 1 1 1 2 1 2 2 2 4 5 15 15 6 4 7 8 8 5 3 2 4 16 30 29 27 28 28 29 29 28 27 26 24 22 22 21 20 19 19 20 20 19 18 17 16 15 14 13 12 11 10 10 11 11 11 11 10 10 9 9 8 7 7 8 8 9 11 11 9 9 9 9 9 9 9 10 11 11 11 11 10 9 9
15 16 16 13 10 6 3 3 0 1 0 2 2 1 1 2 1 2 2 3 2 4 7 10 19 11 5 9 12 9 9 5 3 10 17 29 33 28 29 29 29 30 29 28 26 26 24 23 22 21 20 19 19 19 19 18 17 16 15 14 13 12 12 10 10 11 11 10 10 10 9 9 9 9 8 7 7 8 8 10 12 12 11 11 10 10 10 10 10 11 11 11 11 11 11 10 10
14 13 13 11 7 3 2 1 1 0 1 2 1 2 1 1 1 1 1 2 5 9 10 13 16 6 4 8 6 5 4 4 12 24 26 32 34 31 31 29 29 29 29 28 25 25 24 23 22 21 20 19 18 18 17 16 15 15 14 13 12 11 10 10 10 10 10 10 9 8 8 8 8 8 8 8 8 8 9 10 12 13 12 12 11 12 12 11 11 11 11 11 11 11 10 10 10
12 10 8 7 4 2 1 0 1 1 2 1 2 2 2 1 1 1 1 2 9 13 11 11 9 2 3 5 6 7 6 9 21 29 30 32 34 34 32 30 30 28 29 27 25 25 24 23 22 20 19 18 17 16 16 15 14 13 12 11 11 11 10 10 10 10 9 9 9 8 8 8 8 8 8 8 9 9 9 10 12 14 14 13 12 13 13 12 12 11 11 11 11 10 9 10 10
11 9 7 5 2 1 0 0 1 2 2 1 2 1 1 0 2 2 4 8 11 11 10 8 5 4 6 6 4 4 8 15 23 29 34 33 33 34 33 32 31 29 28 27 26 25 24 22 21 19 18 17 16 16 15 14 13 12 11 11 11 11 11 11 10 9 9 9 8 8 8 8 8 8 8 8 9 9 9 10 12 14 15 15 14 14 13 13 12 12 12 12 12 10 9 10 10
10 7 5 4 1 1 1 1 1 2 2 1 1 1 2 1 3 4 8 11 11 9 10 7 7 8 8 7 6 7 13 18 24 29 35 35 33 34 33 32 31 29 28 28 27 25 23 22 20 19 17 16 15 15 14 12 12 12 11 11 11 11 11 10 9 9 8 8 8 9 9 8 8 8 8 9 9 9 9 10 10 12 14 16 16 15 14 13 13 13 12 12 12 11 10 10 10
9 5 3 2 1 1 1 2 2 2 1 2 1 1 3 1 3 5 6 6 7 7 7 8 12 11 5 5 8 8 8 17 28 31 35 35 34 33 32 32 30 29 29 28 26 24 23 21 21 19 18 16 14 13 12 12 12 12 12 11 11 11 10 9 9 9 9 9 9 10 9 9 9 8 9 10 10 10 10 10 9 10 12 14 16 16 16 15 14 14 13 12 12 11 10 10 10
8 4 2 1 0 0 1 2 3 2 1 0 0 1 3 3 3 4 4 2 2 3 6 11 13 9 4 5 8 6 6 19 31 33 34 34 34 33 32 31 31 30 29 28 26 24 22 21 21 19 18 16 14 13 12 12 12 12 12 11 11 10 10 10 10 9 9 9 9 10 10 10 10 9 9 10 11 10 10 10 10 10 10 12 14 15 16 16 15 14 13 13 12 11 11 11 10
8 4 2 1 1 1 2 2 2 2 1 1 1 2 5 5 5 5 4 3 2 4 9 11 9 7 7 10 10 9 12 21 30 33 34 34 34 33 31 31 31 31 29 28 26 24 22 21 20 19 17 15 14 13 13 13 12 12 11 11 11 10 10 10 11 10 10 10 9 10 11 11 11 10 10 10 10 10 10 10 11 11 11 11 12 13 15 15 14 14 13 13 13 12 12 12 12
8 4 1 1 1 1 2 2 2 1 2 2 1 5 7 6 7 7 5 3 5 7 9 9 8 12 13 11 9 10 14 22 31 34 33 33 33 31 31 31 30 30 29 27 25 24 22 20 19 18 16 14 14 14 14 13 13 12 11 11 11 10 11 11 11 11 11 10 9 10 11 11 11 11 11 11 11 11 11 11 11 11 11 12 12 12 13 14 14 14 14 14 13 12 12 13 13
5 3 2 1 1 1 2 2 1 0 1 2 3 5 7 9 9 6 3 3 4 7 9 8 10 18 16 8 8 10 16 25 33 35 34 33 32 31 31 30 29 28 27 26 25 23 22 20 18 17 15 15 15 15 14 14 13 12 11 11 11 11 11 12 12 12 11 11 10 10 11 11 11 11 11 11 11 11 11 11 12 12 12 12 12 12 12 13 14 14 14 14 13 13 13 13 13
3 1 2 1 2 1 2 2 2 1 2 2 3 4 8 12 10 6 3 2 3 11 14 11 13 18 12 5 11 15 20 28 33 35 35 33 31 31 31 31 28 27 26 26 25 23 22 20 18 16 16 16 16 15 14 14 12 12 12 12 11 12 12 12 13 13 12 12 11 11 11 11 11 10 10 10 11 11 11 11 11 11 12 12 12 13 13 14 14 14 14 14 13 13 13 13 13
3 1 2 0 2 1 1 2 1 2 3 2 2 5 11 11 8 8 4 1 6 11 13 15 20 17 8 8 17 20 24 29 33 35 34 32 31 31 31 30 28 26 26 25 25 23 21 19 18 18 17 17 16 15 14 13 12 12 12 12 12 12 13 13 13 13 13 13 12 11 11 11 11 10 10 10 11 11 11 11 11 12 12 12 12 13 14 14 13 13 13 14 13 13 13 13 13
5 1 1 1 1 2 1 1 1 2 2 1 4 8 11 7 7 10 7 4 3 7 10 18 25 16 11 13 18 23 26 30 34 34 33 31 30 30 30 29 27 26 25 24 23 22 21 20 19 19 18 17 16 16 14 13 13 13 12 12 12 13 13 13 12 13 13 13 12 12 11 11 11 10 10 10 11 11 11 11 12 12 12 12 12 13 13 13 13 13 13 13 14 13 13 13 12
9 2 2 2 2 1 1 2 2 2 2 4 7 9 9 6 10 11 10 6 4 12 12 18 21 11 13 14 16 29 31 32 34 32 33 30 29 29 29 28 27 26 24 23 22 22 22 21 20 20 19 18 17 16 15 14 13 13 13 13 13 13 14 13 13 14 14 14 13 12 11 10 10 10 10 10 11 10 11 12 12 12 13 13 12 13 13 14 14 13 13 13 13 13 13 13 13
9 5 2 2 1 1 2 2 2 3 2 5 10 12 8 6 12 10 9 8 8 13 10 17 12 1 17 17 20 36 34 34 33 32 33 30 29 28 28 27 26 25 24 23 23 23 22 21 20 20 19 18 17 16 15 14 14 13 13 14 13 14 14 13 13 14 14 13 13 12 11 11 11 11 11 10 11 11 11 12 12 12 12 13 13 13 13 14 14 13 12 13 13 13 13 14 13
6 5 1 3 2 1 2 4 3 3 5 7 12 12 7 5 9 9 10 10 9 8 7 15 6 4 22 20 27 38 34 34 32 32 33 31 31 29 29 28 27 26 24 23 23 23 22 21 21 20 20 18 17 16 15 15 14 15 14 15 15 14 14 14 14 14 14 13 12 12 11 11 11 11 11 11 11 11 11 11 12 12 12 13 13 13 14 14 14 13 12 12 13 13 14 14 14
6 2 2 3 2 3 3 4 4 5 6 9 13 12 9 8 8 10 10 8 7 7 9 12 7 13 21 21 34 37 34 34 31 33 33 32 32 31 31 29 28 26 24 24 23 23 23 22 22 21 21 19 18 17 16 16 16 16 16 16 15 15 14 14 14 14 13 12 12 11 11 11 11 11 11 11 12 11 11 11 11 12 12 13 13 14 14 15 14 13 12 13 13 13 13 14 14
8 2 2 4 3 4 4 5 8 6 8 11 12 11 10 10 12 13 8 5 7 8 9 14 18 20 21 28 37 34 34 33 31 34 33 34 34 33 33 30 29 26 25 25 23 24 24 23 22 21 21 19 18 17 17 17 17 17 17 17 16 16 15 14 14 13 13 12 12 11 10 11 11 11 11 11 12 12 11 11 11 11 11 12 13 14 14 14 13 12 12 12 13 13 13 14 13
11 6 2 5 6 5 4 8 11 9 14 13 9 11 10 11 15 13 7 6 7 6 9 17 23 25 29 34 36 34 34 32 32 33 33 35 34 34 34 32 30 27 27 26 24 24 24 23 22 21 20 19 18 18 18 18 18 18 17 17 16 15 14 14 14 13 13 12 12 11 10 11 11 12 12 11 12 12 12 11 11 11 12 12 13 13 13 13 12 11 11 12 12 12 12 13 13
8 9 5 5 5 4 4 9 12 13 20 16 12 13 10 12 14 12 11 8 3 6 12 18 25 31 35 37 36 35 34 33 33 31 32 35 35 34 33 31 29 28 28 26 25 25 24 23 21 21 19 18 18 18 18 18 18 18 18 17 16 15 14 14 13 13 13 12 12 11 11 11 11 11 11 11 11 12 11 11 11 12 12 12 13 13 13 12 11 11 11 11 11 11 11 11 12
4 7 11 10 6 4 2 11 15 18 20 16 14 13 13 15 13 14 15 7 5 12 13 18 30 34 37 40 39 35 34 35 34 33 33 34 35 34 31 30 28 28 27 26 26 25 24 23 21 21 19 18 18 17 18 19 19 19 18 17 16 16 14 14 14 13 13 12 12 11 11 11 10 10 10 10 11 11 11 11 11 12 13 13 14 13 13 12 11 10 10 10 10 10 10 10 10
6 7 12 14 12 7 5 13 18 22 20 13 11 14 18 16 9 14 15 5 9 17 12 19 31 34 38 40 37 35 36 36 35 35 33 33 35 34 31 30 29 29 27 26 26 25 24 23 22 21 20 19 18 18 18 19 19 19 18 17 16 16 15 14 14 13 13 13 12 11 11 10 10 10 10 10 10 12 12 12 12 12 13 14 14 13 12 11 10 9 8 8 9 9 9 8 8
9 7 10 12 12 10 10 16 19 22 21 14 14 16 17 13 9 14 14 7 14 17 13 23 32 33 37 37 35 35 36 36 35 34 32 31 34 33 31 30 29 29 27 27 26 25 25 24 23 21 20 19 19 19 19 20 20 19 19 18 16 15 15 14 14 13 13 13 12 12 11 10 10 11 11 10 11 12 12 11 12 12 12 12 12 12 11 10 9 8 7 7 7 7 7 7 7
10 9 11 10 12 14 14 19 20 19 17 16 16 14 11 12 14 15 13 12 17 16 14 26 33 33 35 35 34 33 34 35 33 33 31 30 32 32 30 29 29 28 28 28 27 26 25 24 23 22 21 20 20 20 20 20 20 20 19 18 17 15 15 14 14 13 13 13 12 12 11 10 10 10 11 11 11 11 11 11 10 11 11 11 10 9 9 9 8 7 6 5 5 5 5 5 5
8 11 13 10 12 14 15 20 21 18 16 18 15 8 7 13 14 10 11 16 17 15 17 28 34 34 34 33 33 33 34 34 33 33 31 30 32 32 31 30 30 29 28 27 27 27 25 24 23 22 22 21 20 20 21 21 21 21 20 19 17 16 15 15 14 13 12 12 12 12 11 10 9 9 10 10 10 10 10 9 9 9 9 10 10 9 9 9 8 8 7 5 4 4 5 5 5
10 12 15 14 15 14 20 22 20 18 16 19 14 5 8 14 9 4 11 18 18 18 21 29 34 34 33 32 33 33 33 34 34 33 31 31 32 32 32 31 31 29 28 28 27 26 25 24 23 22 22 22 21 21 22 21 21 21 20 19 18 16 15 15 15 13 12 11 11 12 11 10 9 8 9 9 8 9 9 8 8 8 9 9 9 9 9 8 9 8 8 7 6 5 6 6 5
14 13 12 12 11 11 20 20 20 17 12 18 16 7 6 9 3 3 15 20 21 22 25 32 33 34 33 32 34 34 33 33 33 33 32 33 32 32 33 32 32 30 29 28 27 26 25 24 23 22 23 22 22 22 22 22 22 21 19 19 18 17 15 14 14 13 12 10 10 10 10 10 9 8 8 7 7 7 8 8 8 8 8 9 9 9 8 7 8 8 8 8 7 6 6 7 6
15 9 6 6 0 9 16 16 21 16 10 19 19 8 2 5 2 10 21 22 23 24 28 33 32 33 33 31 34 35 34 33 33 34 33 33 32 31 33 32 32 31 30 28 27 26 25 24 23 22 23 23 23 23 23 22 22 21 19 19 18 17 15 14 13 12 11 11 10 9 9 9 8 8 8 6 6 6 7 7 7 8 8 8 8 8 9 8 9 8 8 8 8 7 7 8 8
11 5 2 1 4 5 12 14 18 12 12 28 19 3 5 6 6 17 24 24 26 27 31 35 31 33 33 31 36 36 35 35 35 36 34 33 31 30 32 31 31 31 30 29 28 27 25 25 24 23 23 23 24 23 23 22 22 21 20 19 18 16 15 14 13 12 11 10 10 9 9 8 8 8 8 7 7 6 6 6 6 8 9 9 8 8 8 9 9 8 8 8 9 8 8 9 8
4 3 1 2 3 4 7 11 14 7 11 29 14 2 7 8 9 21 26 28 31 31 32 34 32 34 33 32 37 38 37 38 38 37 35 34 31 30 30 29 31 31 30 30 29 27 26 26 25 24 23 24 24 24 23 23 22 21 20 19 18 16 15 14 13 12 11 10 9 9 9 8 7 8 8 7 7 6 5 5 6 7 8 9 8 8 8 9 9 9 8 8 9 9 8 8 8
2 1 3 2 2 4 4 8 14 8 11 23 9 2 5 6 10 21 26 29 32 31 30 33 34 34 33 32 36 39 38 38 38 38 36 35 32 31 29 28 30 31 30 30 28 27 27 26 25 24 24 25 25 24 23 22 21 21 20 19 18 17 16 14 13 11 10 9 8 8 8 8 7 7 7 7 6 6 6 6 7 8 9 9 9 8 8 9 10 10 9 8 9 9 8 7 7
3 1 2 3 2 2 3 6 13 10 10 15 9 1 2 2 11 21 26 29 30 28 28 32 34 32 32 32 34 37 37 37 38 39 38 36 34 32 31 29 29 30 30 30 29 29 28 27 26 25 25 26 25 24 23 21 21 21 20 19 18 17 16 14 13 12 10 9 7 6 7 7 7 6 6 6 6 5 6 6 7 8 9 9 9 8 8 10 11 11 10 9 9 8 6 6 6
3 2 1 3 1 3 3 5 9 7 7 11 10 5 2 1 12 22 26 29 28 26 27 31 32 31 31 32 34 36 37 38 38 40 40 38 36 34 32 29 28 28 29 29 29 29 29 28 26 25 25 25 25 24 23 21 20 21 21 20 18 17 16 15 13 12 10 8 6 5 7 7 7 6 6 6 6 6 6 7 8 8 9 10 9 9 9 11 12 12 11 11 10 7 5 4 4
2 0 1 3 1 3 4 4 6 8 6 9 11 8 5 1 10 19 25 28 27 27 29 31 30 30 30 30 33 36 38 39 38 39 40 39 38 36 33 31 28 28 28 29 29 29 30 29 27 26 25 26 25 24 23 22 21 22 21 20 19 19 17 15 12 11 10 9 7 6 7 8 7 7 7 6 7 6 6 7 8 8 9 9 9 9 10 10 11 11 12 12 11 9 8 6 5
5 3 2 2 4 1 4 3 6 13 8 7 11 10 7 7 10 14 22 27 25 26 29 29 28 30 31 29 32 36 39 40 39 36 37 39 39 37 35 32 30 29 28 29 30 30 31 31 29 27 27 26 26 24 23 23 24 24 23 22 22 21 18 15 12 11 10 9 8 8 8 8 7 7 7 6 7 6 6 7 8 8 9 9 9 9 9 10 11 12 12 13 12 10 9 7 5
3 1 1 3 4 4 4 3 5 13 9 8 12 12 9 11 12 15 23 25 21 23 26 27 27 30 33 31 30 35 39 41 40 36 35 38 39 37 36 34 32 31 29 29 30 32 33 32 31 29 28 28 27 26 25 25 27 26 25 25 24 22 19 16 13 11 9 8 8 9 9 9 8 8 7 6 7 6 7 7 9 9 8 8 9 9 10 11 12 13 14 13 12 11 10 9 6
3 2 3 4 3 5 6 3 5 10 8 8 10 11 10 11 12 15 21 20 19 24 27 28 31 31 35 35 31 34 38 39 39 37 35 37 39 38 37 36 36 35 33 31 31 33 35 33 32 31 29 29 28 28 27 27 28 27 27 26 25 24 20 17 14 10 8 8 9 10 9 9 8 8 7 7 7 7 7 8 9 9 8 9 10 11 11 11 13 14 14 14 13 12 11 10 8
4 3 2 4 3 3 6 5 4 8 7 6 9 11 8 7 10 13 18 20 22 30 32 32 34 32 34 37 34 32 35 37 39 39 38 39 41 40 40 39 39 37 34 32 32 33 35 35 33 32 31 30 29 29 28 27 27 26 25 25 25 24 21 17 13 10 9 9 9 9 9 9 8 8 8 8 7 7 8 9 9 9 8 10 10 11 11 12 14 14 14 14 14 14 12 9 7
4 4 3 3 2 1 3 6 3 4 6 5 6 7 2 5 7 9 16 20 20 25 29 30 32 33 35 39 38 34 36 39 40 40 39 40 42 42 43 42 41 39 36 34 33 34 36 36 34 33 33 31 30 30 28 27 26 25 23 23 24 23 20 17 14 13 13 12 11 10 9 9 9 9 9 9 8 8 9 9 9 9 8 9 9 9 11 13 14 14 15 15 16 15 11 9 7
4 6 6 4 3 4 6 5 5 2 5 3 5 2 1 6 10 8 11 15 14 18 23 25 29 32 34 36 37 36 38 41 42 42 41 42 44 44 44 44 43 42 40 37 35 35 36 36 35 34 33 32 31 30 29 27 26 26 24 24 25 24 21 19 19 18 17 16 14 12 10 10 10 10 10 10 9 9 10 9 9 9 8 8 9 9 10 13 14 15 15 16 17 15 12 10 8
5 7 9 7 5 7 8 5 4 4 6 4 8 4 4 5 10 9 8 10 12 15 19 23 28 31 31 32 35 36 38 41 43 44 43 43 45 45 45 46 45 44 42 39 35 35 35 34 34 34 33 33 32 30 29 28 27 28 28 27 27 27 26 24 23 21 19 18 15 13 11 11 11 11 11 10 10 10 10 9 9 9 9 9 9 10 11 13 14 15 15 16 17 16 14 13 10
5 6 7 8 7 8 9 5 1 2 5 4 8 6 2 2 8 10 9 11 13 13 14 20 28 31 31 33 36 38 38 39 42 43 43 42 44 46 47 47 47 46 44 40 37 35 35 34 33 34 34 33 32 31 29 28 28 29 29 29 28 29 28 26 23 21 19 17 15 13 12 12 12 12 12 12 12 11 10 10 9 9 9 9 10 11 11 12 13 14 15 15 16 17 16 15 12
6 5 6 7 8 8 9 7 4 5 3 2 2 3 3 2 7 9 10 10 10 11 13 17 25 31 33 34 36 40 41 40 41 43 43 43 45 48 49 49 49 47 45 42 40 37 36 35 33 34 35 33 32 32 31 30 29 30 30 29 29 29 27 25 22 21 18 16 15 13 12 13 14 13 13 13 13 12 11 11 10 10 10 9 10 10 11 11 12 14 15 15 16 17 17 16 13
10 6 7 6 7 8 7 6 4 3 2 1 5 1 3 4 3 6 9 9 11 15 16 16 23 31 33 35 37 39 41 42 42 43 45 45 46 48 49 50 49 47 46 44 41 39 37 36 34 35 35 35 33 32 32 31 30 31 31 30 29 29 27 25 23 21 19 18 16 14 13 14 15 14 14 14 14 13 12 12 12 11 10 9 9 10 11 12 12 13 14 15 16 16 16 15 14
11 4 5 4 4 5 3 4 4 1 3 4 7 4 2 4 2 6 8 8 12 15 15 16 23 30 32 34 36 37 39 42 43 44 45 46 47 48 49 49 49 48 47 45 42 40 38 37 36 36 36 36 34 33 33 33 31 32 32 31 30 29 29 27 25 23 21 20 18 17 15 15 16 16 15 15 15 14 13 13 13 12 11 10 10 11 12 12 12 13 14 14 14 15 15 15 14
9 1 3 4 1 0 1 2 2 3 1 7 8 7 4 3 4 5 8 12 16 15 13 14 19 26 30 33 36 37 38 41 43 44 45 45 46 46 48 48 49 49 48 46 45 42 40 39 38 37 36 37 36 34 33 34 33 33 33 32 30 30 30 29 27 25 24 23 21 19 17 16 17 16 16 16 16 15 15 14 14 13 11 11 12 12 12 11 11 11 13 14 14 14 14 15 15
7 1 3 3 2 2 2 4 2 3 3 7 6 5 5 2 5 5 11 15 17 17 15 14 17 25 32 35 36 38 39 40 41 42 43 44 44 44 47 49 50 49 49 48 47 45 43 41 39 38 38 38 37 35 34 34 35 34 33 32 30 30 31 30 28 27 26 25 23 21 18 18 18 17 17 17 17 17 16 15 15 14 13 13 12 13 12 11 12 12 12 14 14 14 14 14 15
6 3 4 2 2 0 1 2 1 3 4 5 4 3 3 5 6 8 14 15 14 16 16 16 20 26 32 35 37 38 39 40 41 42 43 44 44 45 47 50 51 51 51 50 49 48 46 44 41 39 39 38 38 37 35 34 35 35 34 33 31 31 32 31 29 27 26 25 24 22 21 20 20 19 18 18 18 18 17 16 16 15 14 13 13 12 12 12 12 12 11 12 13 14 14 14 15
4 5 5 4 3 2 3 3 1 2 3 4 4 2 2 4 4 3 8 11 15 20 24 25 27 30 34 37 39 39 39 41 42 43 44 45 46 47 48 50 52 52 52 51 50 50 48 46 44 42 39 39 39 39 37 35 35 36 35 34 32 32 33 32 30 28 26 26 25 24 22 22 21 20 20 18 17 17 17 16 15 14 14 14 14 13 12 12 12 12 11 11 11 12 12 14 15
2 5 6 5 5 5 4 4 3 3 3 2 2 2 3 3 1 4 5 8 11 12 21 29 30 32 35 35 36 36 37 40 42 44 45 46 47 48 49 50 52 53 52 52 51 51 51 49 47 44 41 40 40 40 39 37 36 36 36 35 33 33 33 33 31 29 27 26 26 25 23 23 22 21 19 17 17 17 17 16 15 14 14 14 14 14 13 13 13 13 12 12 11 11 12 13 14
4 2 6 3 3 5 3 3 5 4 1 1 1 2 2 4 2 9 12 13 17 17 13 18 25 28 30 31 33 36 38 39 42 44 46 46 47 48 49 49 51 52 52 53 52 53 52 51 49 46 43 41 40 40 40 39 37 36 36 36 35 34 34 33 33 31 29 28 27 26 24 24 23 21 19 17 17 17 17 16 15 15 14 14 15 15 14 14 15 14 14 13 12 12 12 13 14
3 3 2 3 3 4 4 2 1 4 4 1 1 1 4 3 3 12 16 15 17 19 17 14 19 24 25 29 34 38 41 42 43 45 47 46 46 47 48 49 50 52 53 54 54 54 54 52 50 48 45 43 42 41 40 40 39 37 37 37 37 36 36 35 34 33 31 29 28 27 26 25 24 23 20 17 17 16 16 16 16 15 15 15 15 16 15 15 16 16 15 15 13 13 13 13 13
2 2 4 5 2 3 4 1 2 5 3 2 2 4 4 4 3 10 17 19 20 19 17 16 15 19 24 29 35 39 42 45 46 46 45 45 45 46 48 49 50 52 54 55 55 55 54 53 51 49 47 46 44 42 41 40 40 39 38 38 38 38 38 37 36 35 33 31 29 28 27 26 25 23 21 19 18 17 15 15 16 16 16 16 15 16 16 16 16 17 16 15 14 14 14 13 13
3 2 3 2 3 1 1 2 2 2 2 1 2 3 4 4 4 9 15 17 20 21 19 18 13 14 26 29 32 38 40 41 43 44 44 45 45 47 48 49 50 51 53 54 54 54 54 53 52 50 48 47 44 43 41 41 41 40 39 39 39 40 39 39 38 36 35 33 31 29 28 27 26 24 22 20 19 18 17 16 15 15 16 17 17 16 17 17 17 17 16 15 14 14 14 13 13
6 4 5 4 2 2 1 1 3 3 3 3 1 3 3 2 4 8 13 14 16 20 19 17 19 12 24 32 31 34 37 39 41 43 45 46 47 48 49 49 50 50 51 52 52 53 54 53 53 52 50 48 46 44 43 41 41 41 40 39 40 40 40 40 40 38 37 36 33 31 29 28 27 26 24 22 21 20 19 18 17 16 16 17 18 18 18 19 19 18 17 16 15 15 15 14 13
7 7 7 6 4 2 1 1 1 3 3 3 2 3 1 1 2 7 11 12 14 19 18 15 24 26 11 24 32 34 37 41 43 44 45 47 47 47 48 49 49 48 49 50 51 52 53 53 53 53 51 50 49 47 45 43 42 41 41 40 40 40 41 42 41 40 39 38 36 34 32 30 29 28 27 25 24 22 21 20 20 19 18 17 18 19 19 20 20 20 18 18 17 17 17 15 14
8 6 6 5 5 4 2 1 3 3 2 2 4 3 3 2 1 4 7 10 11 18 20 17 26 37 30 14 9 26 33 35 38 41 43 46 47 47 47 47 47 47 47 49 50 51 52 52 53 53 52 52 51 49 47 45 43 42 41 41 40 40 41 42 43 43 42 40 39 37 35 34 32 31 30 29 27 25 24 23 22 21 20 19 19 19 20 21 22 21 20 19 19 19 18 17 17
Wind_Direction
133 137 135 133 136 135 144 151 129 329 153 286 267 270 270 13 122 184 131 96 357 195 174 134 147 151 133 140 141 96 77 125 154 142 144 143 149 153 152 152 149 144 140 138 139 139 140 141 143 144 146 146 145 145 145 145 144 146 149 152 154 153 150 145 141 133 128 128 128 129 127 127 127 125 125 128 132 133 132 128 123 126 133 133 138 140 141 143 141 141 140 142 138 134 137 138 134
138 138 136 137 141 133 139 148 98 339 245 286 285 275 302 341 197 193 129 162 253 175 168 149 149 147 93 121 129 98 62 37 122 124 126 141 148 153 154 153 150 147 143 141 141 141 142 144 146 147 148 147 146 145 145 145 146 149 152 153 151 147 143 138 133 127 127 127 126 128 130 131 129 128 130 133 139 137 134 132 128 129 132 133 136 136 136 137 136 138 139 139 134 134 137 138 137
140 137 139 140 134 123 119 126 99 73 290 286 292 310 290 258 231 183 140 215 195 151 145 146 150 145 80 111 109 98 77 62 127 128 130 146 151 152 156 155 151 150 147 144 143 141 141 144 146 146 147 146 145 146 146 148 149 151 150 148 144 140 137 134 131 128 131 130 130 132 132 134 133 135 138 140 142 138 134 133 129 130 131 130 134 134 134 133 134 136 135 132 128 129 131 134 135
142 135 141 138 124 119 105 120 141 177 248 248 265 294 297 262 316 301 2 75 137 134 131 138 135 92 53 99 100 91 107 127 136 135 140 154 154 152 156 156 153 152 150 146 143 141 140 142 142 143 144 145 147 149 150 151 150 146 144 143 139 136 134 134 132 132 135 137 136 134 135 139 140 143 142 142 142 137 133 130 130 130 129 130 133 133 131 129 129 128 125 123 119 120 124 126 126
153 144 148 143 111 69 142 290 195 214 209 215 258 263 267 287 20 18 54 87 117 121 118 124 104 79 78 83 92 111 140 143 142 143 147 155 155 152 155 156 155 153 152 148 145 143 142 143 143 143 144 147 150 152 153 150 146 142 141 138 134 134 135 136 135 134 136 138 139 138 142 144 145 148 145 141 138 135 132 129 131 130 129 131 131 128 125 125 125 121 117 117 116 119 122 122 123
167 160 159 153 59 358 232 284 241 235 221 212 235 226 221 145 72 72 76 87 102 111 106 101 110 104 84 62 58 125 149 149 148 150 151 154 155 154 155 156 155 154 153 151 149 146 145 147 147 148 148 149 152 154 152 148 145 141 139 134 132 135 139 139 138 138 138 137 138 139 143 146 148 149 147 145 138 134 132 131 133 132 130 130 129 125 124 124 121 116 115 115 115 119 121 120 123
183 177 156 153 311 310 261 274 259 259 228 216 240 191 186 122 99 101 76 81 97 108 102 105 124 109 79 82 84 106 152 157 152 152 153 154 156 156 156 156 155 154 153 153 151 148 148 150 151 153 153 151 155 156 152 147 144 140 138 138 138 141 143 141 139 140 138 135 134 135 140 146 148 146 142 140 136 136 136 135 138 134 129 127 126 125 126 125 121 118 117 113 113 117 117 115 118
192 178 149 169 262 259 262 263 264 256 190 193 318 176 163 106 107 105 50 64 96 82 112 126 128 102 65 111 104 114 162 161 152 152 155 155 156 156 157 156 155 153 153 153 151 150 151 154 154 155 154 155 159 157 152 147 143 141 143 147 146 146 144 142 141 139 137 133 132 135 140 143 142 137 133 132 133 135 136 136 138 135 127 121 120 122 124 122 120 117 112 110 112 115 115 115 118
189 174 165 209 199 232 240 257 242 250 265 182 190 143 135 127 120 101 64 73 118 131 139 145 141 107 96 97 106 134 156 161 153 152 155 155 156 156 156 157 155 153 152 153 152 152 155 156 154 154 157 160 162 157 150 147 146 147 149 152 151 148 146 144 142 139 137 133 134 136 135 137 134 131 129 129 130 130 132 134 133 131 124 118 117 118 117 116 115 111 108 106 108 111 113 114 114
185 183 195 223 226 263 254 277 211 254 268 170 152 141 131 130 116 94 89 118 144 147 150 148 132 117 111 96 105 141 157 160 153 152 156 156 157 157 157 157 156 153 152 154 154 154 156 156 155 158 161 161 159 154 152 151 151 151 151 151 149 148 145 144 141 140 140 137 138 135 130 131 130 129 128 127 127 127 129 129 129 128 123 118 117 116 115 113 111 110 109 105 105 108 110 110 111
169 200 233 223 214 270 259 298 262 94 192 142 95 122 119 125 118 97 121 165 154 150 154 141 122 116 109 94 107 141 157 158 155 154 157 157 158 158 157 157 157 155 153 154 155 156 157 158 160 161 159 156 155 155 155 155 153 152 151 148 146 147 146 145 141 140 140 141 140 133 129 128 128 129 128 130 129 127 126 126 128 127 123 118 115 117 116 112 110 110 107 102 102 103 103 106 108
157 216 174 192 204 208 228 259 307 100 132 117 98 105 120 134 129 124 156 235 146 142 153 153 142 126 105 98 125 143 155 157 157 155 158 159 159 159 158 158 159 158 156 157 157 159 161 161 160 156 154 154 155 156 156 155 155 153 149 147 148 148 146 145 142 139 139 141 141 133 130 128 129 130 130 132 127 124 125 125 128 127 124 121 118 119 118 114 113 112 106 102 100 99 99 101 104
195 210 139 264 214 184 231 231 283 120 105 73 124 140 140 140 131 143 157 153 134 142 161 162 150 133 102 121 135 147 155 159 159 157 159 160 160 161 160 160 161 161 161 162 162 162 163 159 155 153 154 155 156 157 157 156 156 153 150 150 150 148 145 145 142 139 139 140 139 133 130 129 129 130 131 129 123 122 125 126 128 129 128 124 122 120 119 117 116 113 109 105 101 100 100 100 103
200 274 201 261 266 226 219 189 241 110 94 110 143 154 148 130 127 151 154 125 111 133 157 163 151 132 119 132 143 155 158 160 159 158 160 161 162 162 161 163 163 165 166 167 166 163 158 155 154 154 155 158 160 157 158 159 157 155 153 151 148 146 143 142 140 138 139 138 136 132 130 127 126 128 128 124 121 122 124 127 128 129 130 127 125 122 122 121 118 114 112 109 103 101 101 102 106
211 285 272 268 334 273 223 174 202 114 121 169 166 156 132 116 137 151 156 132 99 124 132 158 153 132 151 158 159 162 160 158 158 159 162 163 163 162 163 164 165 167 168 169 166 159 154 155 158 157 158 161 161 159 159 159 159 157 153 150 147 146 142 139 140 137 137 137 135 134 133 129 127 128 126 123 120 122 127 130 129 129 130 129 127 124 126 126 121 115 114 112 106 102 102 104 106
217 252 323 296 280 258 247 179 151 117 150 173 168 153 112 119 147 150 155 129 123 133 130 160 162 148 167 167 163 161 156 155 157 161 164 165 165 164 166 166 167 169 169 169 164 157 155 158 160 159 161 163 162 161 161 160 159 158 153 150 147 144 141 140 139 135 135 136 137 137 135 133 132 130 127 124 121 123 126 127 128 129 131 131 127 128 131 128 121 115 114 113 109 105 104 105 104
217 239 270 291 262 242 233 181 173 147 156 162 170 162 122 136 154 151 153 133 135 140 145 169 193 173 163 166 162 157 153 155 160 164 167 167 167 167 168 169 169 170 170 169 163 157 159 162 163 163 165 164 163 164 163 160 158 157 154 150 147 144 141 142 141 138 139 140 141 139 134 132 132 132 130 126 123 124 123 123 127 129 131 133 132 133 133 128 121 116 116 116 115 110 109 108 105
219 227 202 254 257 217 231 191 165 136 152 170 177 170 139 146 155 149 145 134 139 124 138 159 136 141 157 161 158 154 153 159 164 167 170 169 170 171 170 171 171 171 170 169 165 163 165 166 167 167 166 165 165 165 163 160 158 159 157 152 149 147 147 149 149 147 147 143 142 140 134 131 130 132 131 126 124 124 124 125 128 129 133 135 136 136 134 130 124 122 122 121 121 117 115 112 109
211 224 200 237 221 218 242 166 154 140 156 168 171 167 144 147 152 150 145 139 147 123 128 132 119 131 147 153 154 155 158 162 168 171 172 172 173 173 172 173 174 173 171 170 170 170 169 168 169 168 167 167 167 167 164 161 161 161 157 154 153 153 154 155 155 153 149 144 141 141 136 132 132 132 131 128 126 126 127 128 128 129 132 134 136 137 135 132 128 126 125 124 122 118 116 115 113
205 215 243 247 224 259 278 158 167 165 154 153 156 156 139 143 151 149 141 136 149 147 144 133 129 139 147 153 156 157 162 167 172 174 175 174 176 176 175 175 176 175 173 172 172 173 173 170 170 169 168 168 169 169 165 163 163 161 158 157 158 157 158 157 155 154 149 143 141 143 140 138 137 135 133 133 133 133 133 133 133 134 132 133 136 136 135 133 131 128 125 128 123 116 116 116 117
194 199 224 254 212 252 263 160 166 159 152 149 145 145 133 147 158 150 141 135 158 173 159 148 147 150 153 157 159 161 166 170 174 177 176 176 178 179 178 177 177 176 175 174 173 174 174 172 171 170 171 170 170 170 166 166 164 161 160 160 160 160 159 158 155 153 148 143 142 145 145 143 141 137 135 137 136 136 136 136 137 137 133 133 136 135 135 135 134 131 129 131 125 119 118 116 117
222 223 236 255 246 249 206 156 160 153 151 149 143 148 145 152 162 160 156 149 183 174 165 164 161 158 158 160 161 165 169 172 176 179 178 180 180 180 180 178 177 178 177 176 176 175 174 173 173 172 172 172 171 170 169 168 165 163 164 162 161 161 160 158 155 152 147 144 144 144 144 142 141 138 135 136 134 134 135 135 133 129 128 128 131 133 135 137 137 135 131 130 127 125 122 117 115
242 267 248 253 254 248 176 155 160 155 152 156 156 155 148 146 154 166 165 153 174 172 164 169 167 161 161 162 163 168 172 174 178 180 181 182 182 182 181 179 179 179 178 178 178 176 175 174 175 174 174 173 171 172 172 170 168 167 166 164 162 161 159 158 154 152 148 146 146 144 143 142 142 139 137 138 135 135 134 136 135 130 128 128 131 133 134 135 136 137 133 128 125 125 124 118 114
224 259 258 260 258 246 192 165 164 161 158 161 159 153 149 146 149 165 169 160 173 172 155 164 166 161 162 164 167 171 174 177 180 184 185 185 185 185 181 180 180 180 179 180 180 178 177 176 176 176 174 175 174 174 175 172 172 170 167 164 164 163 161 158 154 151 148 148 148 146 145 145 145 141 139 142 140 137 137 138 140 138 137 136 135 136 135 137 140 142 140 133 127 125 124 119 113
225 243 265 269 264 251 200 167 164 163 159 158 154 152 155 153 151 161 173 169 172 169 151 160 163 161 164 167 170 173 176 178 182 185 187 189 189 186 183 182 181 182 181 181 182 180 178 177 177 177 174 175 175 174 175 175 173 171 168 164 164 165 162 157 154 152 151 152 151 148 146 145 147 145 142 143 144 142 143 143 143 145 147 149 148 146 147 149 151 152 152 145 137 134 129 122 118
224 237 260 260 260 248 192 163 161 161 159 157 151 146 146 149 147 154 180 174 170 167 154 160 164 163 168 172 174 175 177 181 183 185 188 190 189 188 186 184 184 183 182 182 183 182 180 179 179 177 174 174 176 174 175 176 173 170 168 165 165 166 163 160 156 153 155 158 158 152 145 143 146 148 146 145 148 149 150 151 152 153 155 158 159 159 159 157 154 154 154 146 138 139 139 136 131
253 256 266 262 261 232 176 160 158 154 159 160 149 136 146 152 151 148 183 178 171 168 159 162 166 168 172 175 177 179 180 183 184 185 186 187 188 190 189 187 187 184 184 185 184 184 183 182 181 178 175 175 176 177 177 177 174 171 170 169 167 166 165 163 160 157 158 161 164 158 148 146 149 152 152 151 156 159 159 161 163 162 163 163 161 160 163 160 154 149 146 138 132 135 138 143 143
278 278 286 279 260 197 165 158 157 149 159 164 140 106 140 156 185 183 175 175 173 169 163 164 168 172 175 177 180 181 183 185 186 186 187 188 189 192 192 191 188 186 187 186 185 186 185 184 183 179 178 178 178 179 179 179 176 173 173 173 170 169 169 166 165 162 160 164 169 167 158 154 157 162 158 156 166 171 169 168 172 174 170 169 165 162 162 158 152 149 147 141 138 139 137 138 136
295 282 296 304 20 156 167 161 159 153 159 160 134 92 170 191 213 169 172 172 171 171 167 168 172 174 177 180 182 183 185 187 188 190 192 193 193 194 196 194 190 188 189 188 187 187 187 187 184 181 181 181 180 181 182 181 178 177 177 175 173 174 174 171 171 167 165 171 174 176 175 169 169 173 169 166 176 181 173 167 173 181 180 178 178 175 166 155 148 152 153 146 147 147 141 137 125
295 271 251 348 67 154 180 161 159 154 157 162 146 91 218 220 186 164 173 171 166 170 169 172 176 178 180 182 184 185 187 189 192 194 195 195 197 197 199 197 193 191 190 189 190 188 189 189 186 184 185 183 182 182 184 184 180 179 179 177 177 179 178 178 177 174 176 178 178 182 184 180 177 179 178 177 183 187 180 173 173 180 183 183 188 188 177 164 156 162 162 151 152 152 145 137 118
289 281 314 113 124 198 188 157 158 139 162 170 159 356 207 213 186 168 174 172 167 168 171 176 178 179 182 181 183 186 189 192 195 197 198 199 200 200 202 202 196 192 192 191 191 190 191 192 189 186 187 185 184 184 186 186 183 181 181 180 184 184 183 185 183 181 185 186 187 188 185 183 181 181 183 184 190 196 195 190 184 184 185 185 189 191 182 173 167 170 169 156 153 150 142 130 109
351 310 314 343 137 193 180 167 174 154 168 183 184 337 212 212 179 173 176 174 170 169 172 177 179 181 183 181 181 185 189 194 196 198 200 202 202 202 205 207 201 195 194 193 193 191 192 196 193 189 189 188 186 186 187 188 186 183 182 185 190 190 189 189 187 186 188 192 197 194 189 187 184 182 185 189 195 201 199 194 194 193 189 188 190 191 186 177 173 175 172 159 152 146 140 124 107
353 90 255 292 64 139 159 185 199 176 154 189 213 222 213 215 170 173 176 176 174 172 174 179 181 184 185 183 182 183 187 192 196 199 201 203 205 205 207 210 206 199 197 196 194 193 194 198 197 193 191 190 189 187 187 189 189 185 185 190 194 194 194 192 189 191 192 195 202 202 201 199 192 188 185 189 196 201 201 196 196 197 194 192 191 191 190 182 177 177 173 164 156 150 144 123 107
318 16 239 270 129 140 169 188 209 195 152 187 212 216 249 209 163 170 176 179 177 176 178 182 185 187 186 185 184 184 186 188 194 199 201 204 205 206 208 211 210 205 202 200 198 196 196 198 198 195 193 192 190 189 188 189 190 187 187 192 195 196 197 195 193 198 202 205 213 217 216 214 206 197 186 187 195 203 209 205 200 200 197 194 193 192 190 187 182 178 174 169 162 158 168 147 117
207 119 81 297 307 143 177 194 186 183 189 196 201 221 250 171 157 171 179 181 181 181 182 185 188 189 187 186 186 187 188 189 193 198 200 203 204 205 207 210 212 210 207 204 202 200 198 199 198 196 195 193 191 190 190 189 189 188 188 191 193 195 196 196 198 205 211 216 226 231 225 222 214 199 190 190 197 206 213 212 204 201 198 193 192 191 190 192 190 184 178 175 170 167 179 176 144
164 170 146 254 296 259 191 219 182 172 193 214 201 213 214 170 166 175 182 185 186 185 185 187 191 191 189 187 189 190 192 193 193 196 199 200 202 204 205 208 211 212 210 207 204 202 201 201 199 197 196 193 190 190 190 190 188 187 188 190 191 193 196 198 200 206 214 223 231 233 223 220 214 198 191 193 201 207 211 213 210 204 200 196 195 193 195 198 197 192 185 183 181 177 185 189 173
182 205 255 251 273 282 229 222 194 172 186 221 208 212 205 179 176 179 182 185 188 187 188 191 193 194 193 191 192 193 195 196 195 197 199 200 201 204 205 208 209 211 210 208 206 204 203 201 199 197 196 194 191 190 191 190 188 187 189 191 192 195 196 196 197 201 211 221 223 221 215 214 212 197 190 192 200 206 205 211 211 205 199 197 196 194 197 199 196 190 186 187 188 185 190 197 200
237 244 279 282 244 265 273 250 201 176 188 231 216 217 217 188 179 180 180 183 192 191 190 194 195 195 196 195 196 196 196 196 196 197 199 200 201 203 206 207 208 209 209 208 207 205 204 203 201 198 196 196 193 192 194 192 192 192 193 194 196 197 197 194 193 194 199 204 206 207 208 212 211 200 193 193 203 210 209 210 208 202 200 198 195 193 194 196 192 185 185 189 189 188 191 194 203
245 241 245 277 239 264 296 289 236 178 188 233 211 213 224 187 179 186 185 189 196 195 194 195 195 195 196 198 199 197 194 194 195 196 199 200 201 203 205 207 208 210 211 210 208 206 205 204 203 201 198 198 196 196 197 196 196 197 197 199 200 199 198 196 195 196 197 197 199 201 206 210 210 204 198 197 205 210 207 205 201 199 201 201 198 196 194 194 190 185 186 190 188 188 192 191 195
239 233 230 247 191 118 288 290 296 171 201 228 189 199 215 146 174 201 201 200 199 200 202 202 199 199 199 200 200 198 194 193 194 195 198 200 201 202 203 206 207 208 211 211 208 206 206 205 204 202 200 200 200 199 200 200 200 200 199 200 203 202 200 200 203 208 209 208 209 209 206 207 207 205 201 200 204 205 200 197 199 200 201 201 201 199 198 197 194 188 189 190 189 190 193 190 184
248 229 230 227 183 190 221 263 347 1 252 234 124 134 270 163 179 202 206 206 207 203 205 208 207 206 205 204 203 201 197 195 194 194 197 199 200 202 203 205 206 207 210 211 209 207 207 208 205 203 202 203 203 202 201 200 200 200 196 195 201 204 205 206 209 210 210 212 213 210 205 204 204 203 202 200 199 201 198 195 197 197 195 197 197 196 197 198 197 194 193 193 193 194 195 193 191
273 242 227 215 207 226 235 260 350 349 289 227 142 154 275 203 186 192 188 198 208 201 201 208 209 208 210 210 208 206 202 198 197 196 197 199 200 202 203 204 205 207 210 211 210 208 209 210 207 204 203 204 205 205 203 201 200 198 193 193 198 203 206 208 208 205 203 205 207 206 205 205 203 202 200 197 196 197 196 195 195 192 193 195 195 195 196 198 199 199 199 198 200 203 201 199 204
262 242 205 197 210 234 251 256 201 248 279 240 171 168 266 249 202 197 185 193 204 200 202 208 208 208 210 210 208 207 204 200 199 198 198 199 200 202 203 204 205 207 209 211 210 209 210 211 210 206 204 205 207 207 206 205 203 200 198 198 201 203 206 207 205 202 199 200 201 201 204 204 202 200 198 196 197 195 193 194 195 194 198 199 198 198 198 198 200 203 205 203 206 211 208 205 208
246 227 149 171 205 224 241 231 199 222 255 287 234 146 108 252 217 193 182 192 204 209 212 210 208 209 210 209 207 206 205 202 200 199 199 201 201 202 204 205 206 207 209 209 209 209 210 212 212 209 206 207 208 209 210 208 205 204 203 203 204 206 209 208 205 202 200 201 201 201 203 204 202 200 198 200 199 196 194 194 197 198 199 201 200 199 198 200 202 206 208 205 208 211 209 207 206
253 230 149 170 195 209 225 204 204 235 131 252 274 136 113 270 240 166 174 193 207 215 216 210 209 210 209 208 206 205 205 203 202 201 200 202 203 204 205 206 206 207 208 209 209 210 210 212 213 211 209 209 210 210 211 211 209 208 207 206 207 209 212 211 209 207 204 205 206 205 205 205 204 201 201 203 203 202 199 198 201 203 199 197 197 196 199 203 205 208 207 205 206 207 207 207 205
249 224 172 199 193 210 211 158 169 99 101 221 238 185 151 279 254 152 171 203 216 220 218 213 211 210 209 208 207 205 205 204 204 203 202 203 205 206 206 206 206 207 208 209 210 210 211 212 213 212 211 211 211 212 212 213 212 210 210 210 210 211 212 211 211 211 208 208 210 210 209 208 207 205 205 205 206 206 203 202 205 206 203 199 197 199 202 205 206 207 208 208 208 207 208 210 209
233 134 180 216 231 18 62 82 113 99 219 245 229 190 164 277 264 176 181 204 210 214 216 212 211 210 209 208 207 206 204 204 204 204 204 204 206 207 206 206 206 206 208 209 209 210 211 211 213 214 214 213 213 213 213 214 214 214 214 213 212 212 212 211 211 210 209 210 211 210 210 210 209 207 207 208 208 207 205 205 206 206 207 206 202 202 203 205 206 206 209 212 212 211 212 213 216
214 121 139 192 300 19 40 354 52 121 247 261 233 176 144 238 263 215 210 214 209 211 213 205 202 207 208 207 206 206 204 204 204 204 204 203 204 205 205 205 205 205 206 207 208 210 211 212 212 214 215 214 214 214 214 215 215 216 216 215 214 213 213 213 213 212 210 210 211 209 209 211 210 208 208 209 209 208 207 205 205 206 208 209 207 205 204 204 207 207 210 213 214 216 216 216 218
174 158 114 140 276 13 181 279 177 176 242 258 224 144 139 234 246 217 217 220 214 214 216 209 204 205 206 207 205 204 204 204 204 203 204 203 203 203 204 204 204 204 205 206 208 210 211 212 212 214 215 215 215 215 215 215 216 217 218 217 215 214 215 215 216 216 213 211 212 211 209 209 209 207 207 208 207 208 209 206 205 207 208 210 211 210 207 204 205 206 210 217 219 222 224 221 219
171 177 144 159 173 128 202 234 183 209 239 249 227 177 192 256 294 246 225 238 234 221 215 213 210 207 206 207 206 203 203 204 204 204 204 204 203 203 204 204 204 204 205 206 208 210 211 212 213 214 216 217 217 216 216 216 217 218 219 219 216 214 215 216 217 218 216 214 214 213 212 211 211 210 209 208 206 208 211 209 209 210 210 211 215 217 214 208 207 207 209 219 224 228 232 228 223
235 183 146 154 168 152 193 205 161 192 234 275 251 215 181 171 359 8 5 329 313 268 230 217 213 211 208 206 205 204 204 204 205 205 206 206 205 204 205 205 205 205 206 207 208 210 212 213 213 214 216 217 217 217 217 216 217 218 220 220 218 216 216 217 216 218 218 217 217 217 215 215 216 215 213 211 210 211 214 214 214 214 212 213 218 222 222 217 214 211 210 214 218 226 234 233 229
269 157 128 141 189 158 148 180 172 161 141 357 211 214 210 190 270 5 13 2 0 352 300 241 221 213 206 202 203 204 205 205 205 206 207 207 206 206 206 206 206 206 206 207 208 210 212 213 214 215 216 218 218 219 219 218 218 219 220 221 219 217 217 216 215 216 218 218 220 222 220 219 220 220 218 215 214 215 216 217 217 217 214 216 220 224 227 225 224 221 217 215 214 219 229 232 232
252 61 122 251 246 132 119 190 244 79 101 239 240 24 337 315 331 356 359 357 1 1 345 299 244 217 203 202 202 203 205 205 206 207 207 207 206 206 206 207 207 207 207 208 209 211 213 214 215 216 217 218 219 221 221 221 220 220 221 221 220 219 217 216 216 216 218 219 221 223 224 224 222 222 222 219 217 218 218 219 220 220 219 220 222 226 230 231 231 230 225 221 218 218 224 229 231
112 88 299 281 256 116 107 136 4 54 123 254 19 74 26 9 344 340 351 358 356 351 348 329 277 221 204 208 206 204 206 206 207 208 207 207 207 206 207 207 208 208 209 210 210 212 213 215 216 217 217 218 220 221 222 223 222 222 222 222 221 220 219 218 218 218 221 222 222 223 225 226 225 224 224 224 225 225 224 223 224 224 225 226 227 229 233 234 235 236 234 229 224 222 225 228 230
56 161 321 9 131 161 36 128 128 99 161 243 35 81 54 31 351 342 352 354 352 348 345 342 317 228 207 210 210 207 207 206 207 208 207 207 207 207 207 207 208 209 210 211 210 211 213 215 217 219 220 221 221 222 223 224 225 225 224 223 222 222 221 220 220 221 223 224 226 225 224 225 226 227 228 229 231 233 233 234 232 231 229 230 232 233 235 238 239 240 240 235 228 227 229 230 229
14 40 13 15 124 167 285 173 145 141 172 195 69 39 37 21 357 7 360 347 353 357 349 347 343 292 220 210 208 207 207 207 207 207 206 207 207 207 208 207 208 209 210 211 210 210 212 215 217 219 220 222 222 223 224 225 226 227 227 226 224 224 223 223 223 223 225 226 228 229 227 227 228 230 233 235 237 240 242 243 243 244 240 237 236 236 236 240 241 242 243 241 236 234 234 234 233
18 32 29 3 346 355 323 259 108 113 145 177 123 56 321 254 12 28 14 355 0 6 356 352 360 352 288 219 211 207 206 207 207 207 206 207 207 207 208 208 209 209 210 210 210 211 213 214 217 218 219 220 221 223 224 225 227 228 229 228 227 226 226 225 225 226 227 229 230 231 231 232 232 233 236 239 242 245 247 249 249 249 249 245 242 240 238 239 241 242 243 243 243 241 240 239 238
58 52 38 12 1 17 63 33 338 35 87 159 133 120 259 251 70 46 25 5 4 15 10 3 8 11 11 1 235 215 213 210 208 208 207 207 207 207 208 208 208 209 209 210 211 212 213 214 216 218 219 220 221 223 224 226 227 229 230 230 230 229 228 228 228 228 228 230 232 234 235 235 235 237 239 242 246 249 251 252 252 251 250 248 246 245 242 241 241 242 243 244 245 245 245 244 242